Weather History for Durant, OK

Change the Weather History Date:

Tuesday, November 26, 2013

  Actual Average (KADM) Record (KADM)
Temperature  
Mean Temperature 42 °F -  
Max Temperature 51 °F 58 °F 84 °F (2000)
Min Temperature 33 °F 40 °F 23 °F (2010)
Degree Days  
Heating Degree Days 23    
Moisture  
Dew Point 31 °F    
Average Humidity 70    
Maximum Humidity 93    
Minimum Humidity 44    
Precipitation  
Precipitation 0.00 in - - ()
Sea Level Pressure  
Sea Level Pressure 30.22 in    
Wind  
Wind Speed 12 mph (NNW)    
Max Wind Speed 23 mph    
Max Gust Speed 30 mph    
Visibility 10 miles    
Events      
Averages and records for this station are not official NWS values.
T = Trace of Precipitation, MM = Missing Value Source: NWS Daily Summary

Daily Weather History Graph

Daily Weather History Graph

Search for Another Location

Airport:

Trip Planner

Search our weather history database for the weather conditions in past years. The results will help you decide how hot, cold, wet, or windy it might be!

Date:

Astronomy

Nov. 26, 2013 Rise Set
Actual Time 7:08 AM CST 5:17 PM CST
Civil Twilight 6:41 AM CST 5:44 PM CST
Nautical Twilight 6:10 AM CST 6:15 PM CST
Astronomical Twilight 5:40 AM CST 6:45 PM CST
Moon 12:30 AM CST (11/26) 1:08 PM CST (11/26)
Length of Visible Light 11h 03m
Length of Day
10h 08m
Last Quarter, 41% of the Moon is Illuminated
Nov 26
Last Quarter
Dec 2
New
Dec 9
First Quarter
Dec 17
Full
Dec 25
Last Quarter

Hourly Weather History & Observations

Time (CST) Temp. Windchill Dew Point Humidity Pressure Visibility Wind Dir Wind Speed Gust Speed Precip Events Conditions
12:15 AM 35.6 °F 28.0 °F 33.8 °F 93% 30.17 in 10.0 mi NNW 10.4 mph - N/A   Overcast
12:35 AM 35.6 °F 28.0 °F 33.8 °F 93% 30.18 in 10.0 mi NNW 10.4 mph - N/A   Overcast
12:55 AM 35.6 °F 29.2 °F 33.8 °F 93% 30.19 in 10.0 mi NNW 8.1 mph - N/A   Overcast
1:15 AM 35.6 °F 28.6 °F 33.8 °F 93% 30.17 in 10.0 mi NNW 9.2 mph - N/A   Overcast
1:35 AM 35.6 °F 27.1 °F 33.8 °F 93% 30.15 in 10.0 mi NNW 12.7 mph - N/A   Overcast
1:55 AM 35.6 °F 28.0 °F 33.8 °F 93% 30.15 in 10.0 mi NNW 10.4 mph - N/A   Overcast
2:15 AM 35.6 °F 27.1 °F 33.8 °F 93% 30.16 in 10.0 mi North 12.7 mph - N/A   Overcast
2:35 AM 35.6 °F 28.6 °F 33.8 °F 93% 30.18 in 10.0 mi NNW 9.2 mph - N/A   Overcast
2:55 AM 35.6 °F 28.6 °F 33.8 °F 93% 30.18 in 10.0 mi NNW 9.2 mph - N/A   Overcast
3:15 AM 35.6 °F 27.5 °F 33.8 °F 93% 30.18 in 10.0 mi NNW 11.5 mph 16.1 mph N/A   Overcast
3:35 AM 35.6 °F 28.0 °F 32.0 °F 87% 30.18 in 10.0 mi North 10.4 mph - N/A   Overcast
3:55 AM 35.6 °F 27.5 °F 32.0 °F 87% 30.15 in 10.0 mi NW 11.5 mph - N/A   Overcast
4:15 AM 35.6 °F 28.6 °F 32.0 °F 87% 30.17 in 10.0 mi NNW 9.2 mph - N/A   Overcast
4:35 AM 35.6 °F 28.6 °F 32.0 °F 87% 30.18 in 10.0 mi NNW 9.2 mph - N/A   Overcast
4:55 AM 35.6 °F 29.2 °F 32.0 °F 87% 30.19 in 10.0 mi NNW 8.1 mph - N/A   Overcast
5:15 AM 35.6 °F 28.6 °F 32.0 °F 87% 30.17 in 10.0 mi NW 9.2 mph - N/A   Overcast
5:35 AM 35.6 °F 29.2 °F 32.0 °F 87% 30.19 in 10.0 mi NNW 8.1 mph - N/A   Overcast
5:55 AM 35.6 °F 28.6 °F 32.0 °F 87% 30.18 in 10.0 mi NNW 9.2 mph - N/A   Overcast
6:15 AM 35.6 °F 27.5 °F 32.0 °F 87% 30.18 in 10.0 mi NNW 11.5 mph - N/A   Overcast
6:35 AM 35.6 °F 28.0 °F 32.0 °F 87% 30.20 in 10.0 mi NNW 10.4 mph - N/A   Overcast
6:55 AM 35.6 °F 28.6 °F 32.0 °F 87% 30.19 in 10.0 mi NNW 9.2 mph - N/A   Overcast
7:15 AM 35.6 °F 28.6 °F 32.0 °F 87% 30.19 in 10.0 mi NNW 9.2 mph 17.3 mph N/A   Overcast
7:35 AM 35.6 °F 27.5 °F 32.0 °F 87% 30.19 in 10.0 mi NNW 11.5 mph - N/A   Scattered Clouds
7:55 AM 35.6 °F 28.0 °F 32.0 °F 87% 30.20 in 10.0 mi NNW 10.4 mph - N/A   Scattered Clouds
8:15 AM 37.4 °F 30.3 °F 32.0 °F 81% 30.20 in 10.0 mi NNW 10.4 mph - N/A   Overcast
8:35 AM 37.4 °F 30.3 °F 33.8 °F 87% 30.21 in 10.0 mi NNW 10.4 mph - N/A   Overcast
8:55 AM 37.4 °F 29.8 °F 33.8 °F 87% 30.22 in 10.0 mi NNW 11.5 mph 17.3 mph N/A   Overcast
9:15 AM 39.2 °F 32.5 °F 33.8 °F 81% 30.21 in 10.0 mi NNW 10.4 mph - N/A   Overcast
9:35 AM 41.0 °F 34.3 °F 33.8 °F 76% 30.22 in 10.0 mi NNW 11.5 mph - N/A   Overcast
9:55 AM 41.0 °F 34.3 °F 33.8 °F 76% 30.22 in 10.0 mi NNW 11.5 mph - N/A   Overcast
10:15 AM 41.0 °F 34.3 °F 32.0 °F 70% 30.23 in 10.0 mi NNW 11.5 mph - N/A   Overcast
10:35 AM 42.8 °F 35.8 °F 33.8 °F 70% 30.23 in 10.0 mi NNW 13.8 mph 17.3 mph N/A   Overcast
10:55 AM 44.6 °F 37.4 °F 32.0 °F 61% 30.22 in 10.0 mi NNW 16.1 mph 23.0 mph N/A   Scattered Clouds
11:15 AM 44.6 °F 38.1 °F 33.8 °F 66% 30.20 in 10.0 mi NNW 13.8 mph - N/A   Clear
11:35 AM 46.4 °F 38.7 °F 33.8 °F 62% 30.19 in 10.0 mi NNW 20.7 mph 26.5 mph N/A   Scattered Clouds
11:55 AM 48.2 °F - 32.0 °F 54% 30.18 in 10.0 mi North 18.4 mph 25.3 mph N/A   Scattered Clouds
12:15 PM 48.2 °F - 32.0 °F 54% 30.18 in 10.0 mi NNW 21.9 mph 26.5 mph N/A   Clear
12:35 PM 48.2 °F - 32.0 °F 54% 30.17 in 10.0 mi NNW 16.1 mph 27.6 mph N/A   Clear
12:55 PM 50.0 °F - 33.8 °F 54% 30.16 in 10.0 mi NNW 16.1 mph 24.2 mph N/A   Clear
1:15 PM 51.8 °F - 32.0 °F 47% 30.15 in 10.0 mi NNW 18.4 mph 24.2 mph N/A   Clear
1:35 PM 51.8 °F - 32.0 °F 47% 30.15 in 10.0 mi NNW 21.9 mph 26.5 mph N/A   Clear
1:55 PM 51.8 °F - 32.0 °F 47% 30.15 in 10.0 mi NNW 20.7 mph 26.5 mph N/A   Clear
2:15 PM 51.8 °F - 32.0 °F 47% 30.15 in 10.0 mi NNW 21.9 mph 29.9 mph N/A   Clear
2:35 PM 51.8 °F - 32.0 °F 47% 30.15 in 10.0 mi NNW 23.0 mph 27.6 mph N/A   Clear
2:55 PM 51.8 °F - 32.0 °F 47% 30.15 in 10.0 mi NNW 16.1 mph 25.3 mph N/A   Clear
3:15 PM 51.8 °F - 32.0 °F 47% 30.16 in 10.0 mi NNW 19.6 mph 24.2 mph N/A   Clear
3:35 PM 51.8 °F - 30.2 °F 44% 30.17 in 10.0 mi NNW 18.4 mph 24.2 mph N/A   Clear
3:55 PM 50.0 °F - 30.2 °F 47% 30.17 in 10.0 mi NNW 16.1 mph 26.5 mph N/A   Clear
4:15 PM 50.0 °F - 30.2 °F 47% 30.18 in 10.0 mi NNW 20.7 mph - N/A   Clear
4:35 PM 50.0 °F - 30.2 °F 47% 30.19 in 10.0 mi NNW 20.7 mph 24.2 mph N/A   Clear
4:55 PM 48.2 °F - 30.2 °F 50% 30.20 in 10.0 mi NNW 13.8 mph 21.9 mph N/A   Clear
5:15 PM 46.4 °F 40.7 °F 28.4 °F 50% 30.21 in 10.0 mi NNW 12.7 mph 23.0 mph N/A   Clear
5:35 PM 44.6 °F 40.2 °F 30.2 °F 57% 30.22 in 10.0 mi NNW 8.1 mph - N/A   Clear
5:55 PM 44.6 °F 39.2 °F 28.4 °F 53% 30.23 in 10.0 mi NNW 10.4 mph - N/A   Clear
6:15 PM 44.6 °F 38.1 °F 28.4 °F 53% 30.23 in 10.0 mi NNW 13.8 mph 18.4 mph N/A   Clear
6:35 PM 44.6 °F 38.4 °F 28.4 °F 53% 30.24 in 10.0 mi NNW 12.7 mph 17.3 mph N/A   Clear
6:55 PM 42.8 °F 36.6 °F 30.2 °F 61% 30.25 in 10.0 mi NNW 11.5 mph - N/A   Clear
7:15 PM 42.8 °F 38.0 °F 30.2 °F 61% 30.26 in 10.0 mi NNW 8.1 mph - N/A   Clear
7:35 PM 42.8 °F 36.6 °F 28.4 °F 57% 30.27 in 10.0 mi NNW 11.5 mph 18.4 mph N/A   Clear
7:55 PM 42.8 °F 37.0 °F 28.4 °F 57% 30.29 in 10.0 mi NNW 10.4 mph - N/A   Clear
8:15 PM 42.8 °F 37.0 °F 28.4 °F 57% 30.30 in 10.0 mi NNW 10.4 mph - N/A   Clear
8:35 PM 41.0 °F 32.2 °F 28.4 °F 61% 30.30 in 10.0 mi NNW 18.4 mph 26.5 mph N/A   Clear
8:55 PM 41.0 °F 32.8 °F 28.4 °F 61% 30.32 in 10.0 mi NNW 16.1 mph 23.0 mph N/A   Clear
9:15 PM 39.2 °F 29.6 °F 26.6 °F 61% 30.33 in 10.0 mi NNW 19.6 mph 28.8 mph N/A   Clear
9:35 PM 37.4 °F 27.5 °F 26.6 °F 65% 30.34 in 10.0 mi NNW 18.4 mph 23.0 mph N/A   Clear
9:55 PM 37.4 °F 27.8 °F 24.8 °F 60% 30.35 in 10.0 mi NNW 17.3 mph 21.9 mph N/A   Clear
10:15 PM 37.4 °F 29.8 °F 24.8 °F 60% 30.36 in 10.0 mi NW 11.5 mph 19.6 mph N/A   Clear
10:35 PM 35.6 °F 27.5 °F 24.8 °F 65% 30.37 in 10.0 mi NNW 11.5 mph 19.6 mph N/A   Clear
10:55 PM 35.6 °F 29.9 °F 24.8 °F 65% 30.37 in 10.0 mi NNW 6.9 mph - N/A   Clear
11:15 PM 35.6 °F 30.7 °F 24.8 °F 65% 30.37 in 10.0 mi NNW 5.8 mph - N/A   Clear
11:35 PM 33.8 °F 28.6 °F 24.8 °F 70% 30.37 in 10.0 mi NNW 5.8 mph - N/A   Clear
11:55 PM 33.8 °F 29.6 °F 24.8 °F 70% 30.38 in 10.0 mi NNW 4.6 mph - N/A   Clear